カタログに戻る

IRIDIUM 73

運用中通信PO
NORAD 25344·PAYLOAD·🇺🇸 United States

打ち上げ May 17, 1998 から Vandenberg Space Force Base

Loading…

次のパス (今後24時間)

TLE

最新Source: Space-Track

元期: Sep 14, 2026, 14:44 UTC

1 25344U 98032C   26257.61432670  .00000358  00000-0  82967-4 0  9993
2 25344  86.4432 213.7068 0001727  88.6282 271.5122 14.52273858496504

AllMySatでIRIDIUM 73をリアルタイム追跡

Download on the App Store